QPF
0.01 0.00 0.00 0.00 0.00 0.00 0.00 0.00 0.00 0.01 0.01 0.01 0.01 0.02 0.02 0.01 0.01 0.01 0.01 0.01 0.01 0.01 0.01 0.01 0.01 0.02 0.03 0.03 0.03 0.03 0.09 0.10 0.08 0.05 0.04 0.03 0.03 0.03 0.02 0.02 0.02 0.03 0.03 0.03
0.01 0.00 0.01 0.00 0.00 0.00 0.00 0.00 0.00 0.01 0.01 0.00 0.01 0.03 0.02 0.01 0.01 0.01 0.01 0.01 0.00 0.01 0.01 0.00 0.01 0.01 0.02 0.02 0.03 0.04 0.09 0.08 0.06 0.05 0.03 0.02 0.02 0.01 0.01 0.02 0.02 0.02 0.03 0.03
0.00 0.00 0.00 0.00 0.00 0.00 0.00 0.00 0.00 0.00 0.00 0.00 0.01 0.01 0.01 0.01 0.01 0.01 0.01 0.01 0.00 0.00 0.00 0.00 0.01 0.01 0.02 0.01 0.02 0.04 0.08 0.06 0.05 0.05 0.03 0.02 0.01 0.01 0.01 0.01 0.01 0.01 0.02 0.02
0.00 0.00 0.00 0.00 0.01 0.01 0.00 0.00 0.00 0.00 0.00 0.00 0.00 0.00 0.01 0.01 0.01 0.00 0.00 0.00 0.01 0.00 0.00 0.01 0.01 0.01 0.03 0.02 0.02 0.03 0.05 0.05 0.06 0.06 0.04 0.02 0.02 0.01 0.01 0.00 0.01 0.01 0.02 0.03
0.00 0.00 0.00 0.00 0.00 0.01 0.01 0.01 0.00 0.00 0.00 0.00 0.00 0.00 0.00 0.01 0.01 0.01 0.01 0.00 0.00 0.00 0.00 0.00 0.01 0.01 0.04 0.05 0.02 0.02 0.03 0.04 0.06 0.05 0.03 0.02 0.02 0.01 0.00 0.00 0.00 0.01 0.02 0.03
0.00 0.00 0.00 0.00 0.00 0.01 0.01 0.02 0.01 0.00 0.01 0.00 0.00 0.00 0.00 0.00 0.00 0.00 0.00 0.00 0.01 0.00 0.00 0.00 0.00 0.01 0.04 0.07 0.04 0.03 0.02 0.03 0.04 0.05 0.05 0.02 0.01 0.01 0.01 0.01 0.01 0.01 0.01 0.02
0.00 0.00 0.00 0.00 0.01 0.01 0.01 0.02 0.02 0.01 0.01 0.00 0.00 0.00 0.00 0.00 0.00 0.01 0.01 0.01 0.01 0.01 0.00 0.00 0.00 0.01 0.03 0.09 0.06 0.04 0.03 0.03 0.03 0.04 0.06 0.04 0.02 0.01 0.01 0.01 0.01 0.02 0.02 0.02
0.01 0.00 0.00 0.00 0.00 0.01 0.01 0.02 0.01 0.01 0.01 0.00 0.00 0.00 0.00 0.00 0.01 0.01 0.01 0.01 0.00 0.01 0.01 0.00 0.00 0.01 0.01 0.09 0.07 0.04 0.03 0.03 0.04 0.05 0.05 0.05 0.03 0.02 0.01 0.01 0.01 0.02 0.02 0.03
0.01 0.01 0.00 0.00 0.00 0.00 0.01 0.01 0.01 0.01 0.01 0.01 0.00 0.00 0.01 0.01 0.01 0.01 0.01 0.01 0.01 0.00 0.01 0.01 0.00 0.00 0.01 0.06 0.06 0.03 0.02 0.02 0.04 0.07 0.07 0.05 0.04 0.02 0.01 0.02 0.02 0.03 0.02 0.02
0.01 0.01 0.00 0.00 0.01 0.00 0.01 0.01 0.01 0.01 0.01 0.01 0.00 0.00 0.01 0.01 0.01 0.00 0.00 0.01 0.01 0.01 0.01 0.01 0.01 0.00 0.01 0.04 0.06 0.04 0.03 0.02 0.03 0.05 0.06 0.06 0.05 0.04 0.02 0.02 0.03 0.04 0.03 0.02
0.01 0.01 0.01 0.01 0.01 0.00 0.01 0.01 0.02 0.01 0.01 0.01 0.00 0.00 0.00 0.00 0.00 0.00 0.00 0.00 0.01 0.01 0.00 0.00 0.01 0.01 0.01 0.02 0.05 0.05 0.04 0.02 0.02 0.03 0.04 0.04 0.05 0.05 0.04 0.02 0.03 0.05 0.04 0.03
0.00 0.01 0.01 0.01 0.01 0.01 0.01 0.01 0.01 0.01 0.01 0.00 0.00 0.00 0.00 0.00 0.01 0.01 0.00 0.00 0.01 0.01 0.01 0.01 0.01 0.01 0.00 0.01 0.03 0.05 0.05 0.03 0.03 0.03 0.03 0.03 0.04 0.04 0.04 0.04 0.04 0.05 0.04 0.03
0.00 0.01 0.01 0.01 0.01 0.01 0.01 0.01 0.01 0.01 0.01 0.01 0.00 0.00 0.00 0.03 0.03 0.01 0.00 0.00 0.01 0.01 0.00 0.00 0.01 0.00 0.01 0.01 0.02 0.05 0.04 0.04 0.04 0.03 0.03 0.04 0.04 0.03 0.04 0.05 0.04 0.04 0.04 0.03
0.01 0.01 0.01 0.01 0.01 0.01 0.01 0.01 0.01 0.01 0.02 0.01 0.01 0.00 0.01 0.03 0.02 0.00 0.00 0.00 0.01 0.01 0.00 0.00 0.00 0.01 0.01 0.01 0.01 0.04 0.04 0.03 0.03 0.03 0.03 0.03 0.03 0.03 0.03 0.03 0.03 0.02 0.01 0.01
0.01 0.01 0.00 0.01 0.01 0.01 0.01 0.02 0.01 0.01 0.02 0.02 0.01 0.01 0.01 0.03 0.02 0.01 0.00 0.00 0.00 0.00 0.00 0.00 0.00 0.00 0.00 0.01 0.01 0.03 0.03 0.04 0.03 0.03 0.03 0.03 0.03 0.03 0.02 0.03 0.02 0.01 0.01 0.01
0.01 0.01 0.00 0.01 0.01 0.01 0.01 0.01 0.01 0.01 0.01 0.02 0.01 0.01 0.02 0.04 0.03 0.01 0.01 0.00 0.00 0.00 0.00 0.00 0.00 0.00 0.00 0.00 0.01 0.01 0.02 0.02 0.02 0.03 0.03 0.03 0.03 0.02 0.02 0.02 0.03 0.01 0.01 0.01
0.01 0.01 0.01 0.01 0.01 0.01 0.01 0.01 0.01 0.01 0.01 0.03 0.04 0.03 0.03 0.03 0.02 0.01 0.01 0.00 0.00 0.00 0.00 0.00 0.00 0.00 0.00 0.00 0.00 0.01 0.01 0.02 0.02 0.02 0.02 0.03 0.04 0.03 0.02 0.02 0.02 0.01 0.01 0.01
0.00 0.01 0.01 0.01 0.01 0.01 0.01 0.01 0.01 0.01 0.01 0.03 0.05 0.05 0.03 0.02 0.02 0.01 0.01 0.01 0.00 0.00 0.00 0.00 0.00 0.00 0.00 0.00 0.00 0.01 0.01 0.01 0.01 0.01 0.01 0.02 0.04 0.04 0.03 0.02 0.02 0.01 0.01 0.00
0.00 0.01 0.01 0.01 0.01 0.00 0.00 0.01 0.01 0.01 0.01 0.01 0.03 0.05 0.03 0.01 0.01 0.01 0.01 0.01 0.01 0.01 0.01 0.01 0.00 0.01 0.01 0.00 0.01 0.01 0.01 0.01 0.01 0.01 0.01 0.02 0.04 0.06 0.05 0.03 0.02 0.01 0.01 0.01
0.00 0.00 0.01 0.01 0.01 0.01 0.00 0.00 0.01 0.01 0.01 0.01 0.01 0.02 0.02 0.01 0.01 0.01 0.01 0.01 0.01 0.01 0.01 0.01 0.01 0.01 0.01 0.01 0.00 0.00 0.01 0.01 0.01 0.01 0.01 0.01 0.03 0.05 0.06 0.07 0.04 0.03 0.01 0.01
0.00 0.00 0.01 0.01 0.02 0.01 0.00 0.00 0.01 0.02 0.03 0.02 0.01 0.01 0.01 0.01 0.02 0.03 0.03 0.02 0.01 0.01 0.01 0.01 0.01 0.01 0.01 0.01 0.01 0.00 0.01 0.01 0.01 0.01 0.01 0.01 0.02 0.04 0.06 0.07 0.07 0.06 0.04 0.02
0.01 0.01 0.01 0.01 0.01 0.01 0.00 0.01 0.01 0.03 0.03 0.03 0.02 0.02 0.01 0.02 0.03 0.04 0.02 0.01 0.01 0.01 0.01 0.01 0.01 0.01 0.01 0.01 0.01 0.01 0.01 0.01 0.01 0.01 0.01 0.01 0.02 0.03 0.06 0.07 0.06 0.06 0.05 0.03
0.01 0.01 0.01 0.01 0.01 0.00 0.00 0.00 0.00 0.00 0.01 0.02 0.02 0.02 0.02 0.01 0.01 0.01 0.00 0.00 0.01 0.00 0.00 0.01 0.01 0.01 0.01 0.01 0.01 0.01 0.01 0.01 0.01 0.01 0.01 0.01 0.01 0.02 0.04 0.07 0.06 0.05 0.04 0.04
0.01 0.01 0.01 0.01 0.01 0.00 0.00 0.00 0.00 0.00 0.00 0.00 0.01 0.01 0.02 0.02 0.01 0.01 0.00 0.00 0.00 0.00 0.00 0.00 0.01 0.01 0.01 0.01 0.01 0.01 0.01 0.01 0.01 0.01 0.01 0.01 0.01 0.02 0.02 0.04 0.06 0.06 0.04 0.03
0.01 0.01 0.02 0.02 0.01 0.00 0.00 0.00 0.00 0.00 0.00 0.00 0.00 0.00 0.01 0.02 0.01 0.01 0.01 0.00 0.00 0.00 0.00 0.00 0.01 0.01 0.01 0.01 0.01 0.01 0.02 0.02 0.02 0.02 0.02 0.02 0.01 0.02 0.01 0.03 0.04 0.04 0.04 0.04
0.02 0.02 0.04 0.03 0.01 0.01 0.00 0.00 0.00 0.00 0.00 0.00 0.00 0.00 0.00 0.01 0.01 0.01 0.01 0.00 0.00 0.00 0.00 0.00 0.00 0.01 0.01 0.02 0.02 0.01 0.01 0.02 0.02 0.01 0.02 0.02 0.02 0.01 0.01 0.01 0.04 0.03 0.03 0.03
MSLP
1008.87 1009.32 1009.80 1010.28 1010.74 1011.14 1011.47 1011.68 1011.75 1011.65 1011.38 1010.96 1010.41 1009.79 1009.17 1008.61 1008.20 1007.96 1007.92 1008.09 1008.44 1008.93 1009.51 1010.14 1010.78 1011.40 1011.98 1012.52 1013.02 1013.49 1013.92 1014.32 1014.68 1015.01 1015.30 1015.55 1015.75 1015.90 1016.02 1016.09 1016.14 1016.15 1016.15 1016.14
1009.28 1009.67 1010.09 1010.51 1010.92 1011.30 1011.60 1011.80 1011.85 1011.73 1011.42 1010.93 1010.30 1009.58 1008.84 1008.18 1007.66 1007.33 1007.24 1007.38 1007.74 1008.25 1008.88 1009.55 1010.24 1010.89 1011.50 1012.06 1012.57 1013.04 1013.49 1013.91 1014.30 1014.67 1015.01 1015.30 1015.54 1015.73 1015.86 1015.95 1016.00 1016.03 1016.03 1016.04
1009.69 1010.04 1010.40 1010.77 1011.14 1011.48 1011.76 1011.95 1011.98 1011.84 1011.50 1010.96 1010.26 1009.46 1008.63 1007.87 1007.27 1006.87 1006.72 1006.83 1007.15 1007.67 1008.30 1008.98 1009.68 1010.33 1010.94 1011.49 1012.00 1012.48 1012.94 1013.38 1013.81 1014.23 1014.61 1014.94 1015.22 1015.44 1015.60 1015.72 1015.79 1015.83 1015.86 1015.89
1010.11 1010.41 1010.72 1011.05 1011.38 1011.69 1011.96 1012.13 1012.15 1011.99 1011.63 1011.06 1010.32 1009.47 1008.58 1007.76 1007.08 1006.62 1006.41 1006.46 1006.74 1007.21 1007.80 1008.44 1009.09 1009.71 1010.28 1010.81 1011.30 1011.77 1012.24 1012.71 1013.18 1013.63 1014.06 1014.44 1014.77 1015.03 1015.22 1015.37 1015.47 1015.55 1015.62 1015.69
1010.54 1010.79 1011.06 1011.34 1011.63 1011.91 1012.16 1012.31 1012.33 1012.17 1011.80 1011.23 1010.48 1009.62 1008.71 1007.85 1007.14 1006.62 1006.35 1006.33 1006.53 1006.90 1007.40 1007.95 1008.51 1009.04 1009.54 1010.01 1010.46 1010.92 1011.39 1011.87 1012.38 1012.87 1013.35 1013.78 1014.16 1014.46 1014.71 1014.90 1015.05 1015.18 1015.30 1015.42
1010.95 1011.16 1011.38 1011.62 1011.87 1012.12 1012.33 1012.48 1012.50 1012.35 1012.00 1011.46 1010.74 1009.90 1009.01 1008.16 1007.42 1006.87 1006.54 1006.43 1006.52 1006.77 1007.12 1007.53 1007.95 1008.36 1008.75 1009.14 1009.53 1009.95 1010.42 1010.92 1011.45 1011.99 1012.51 1012.99 1013.41 1013.77 1014.07 1014.31 1014.52 1014.71 1014.89 1015.06
1011.34 1011.49 1011.66 1011.85 1012.05 1012.27 1012.46 1012.59 1012.62 1012.50 1012.20 1011.71 1011.06 1010.28 1009.45 1008.64 1007.92 1007.35 1006.96 1006.76 1006.72 1006.82 1007.01 1007.24 1007.49 1007.75 1008.00 1008.29 1008.61 1008.98 1009.43 1009.93 1010.48 1011.05 1011.60 1012.13 1012.59 1013.00 1013.34 1013.64 1013.91 1014.16 1014.39 1014.62
1011.67 1011.78 1011.89 1012.02 1012.17 1012.35 1012.51 1012.64 1012.69 1012.61 1012.37 1011.97 1011.42 1010.74 1010.00 1009.26 1008.59 1008.02 1007.59 1007.30 1007.14 1007.08 1007.08 1007.13 1007.20 1007.29 1007.40 1007.57 1007.81 1008.14 1008.55 1009.05 1009.60 1010.18 1010.76 1011.31 1011.80 1012.24 1012.62 1012.96 1013.27 1013.57 1013.85 1014.12
1011.94 1011.99 1012.04 1012.11 1012.22 1012.35 1012.50 1012.63 1012.71 1012.68 1012.53 1012.23 1011.79 1011.25 1010.63 1009.99 1009.38 1008.83 1008.38 1008.02 1007.75 1007.54 1007.38 1007.25 1007.15 1007.09 1007.07 1007.13 1007.29 1007.56 1007.94 1008.42 1008.96 1009.54 1010.11 1010.65 1011.15 1011.59 1011.98 1012.34 1012.68 1013.00 1013.31 1013.61
1012.13 1012.12 1012.13 1012.15 1012.22 1012.32 1012.46 1012.59 1012.70 1012.73 1012.67 1012.49 1012.18 1011.78 1011.29 1010.77 1010.24 1009.74 1009.29 1008.89 1008.53 1008.21 1007.92 1007.65 1007.41 1007.22 1007.10 1007.08 1007.17 1007.39 1007.73 1008.17 1008.68 1009.23 1009.77 1010.28 1010.74 1011.16 1011.53 1011.87 1012.20 1012.52 1012.83 1013.13
1012.24 1012.20 1012.17 1012.16 1012.20 1012.29 1012.42 1012.57 1012.71 1012.81 1012.83 1012.76 1012.59 1012.31 1011.96 1011.56 1011.13 1010.70 1010.27 1009.86 1009.46 1009.07 1008.69 1008.33 1008.00 1007.73 1007.54 1007.46 1007.50 1007.68 1007.98 1008.38 1008.84 1009.32 1009.80 1010.24 1010.64 1010.99 1011.30 1011.59 1011.87 1012.15 1012.43 1012.70
1012.31 1012.25 1012.20 1012.18 1012.21 1012.30 1012.43 1012.60 1012.78 1012.94 1013.04 1013.06 1013.00 1012.85 1012.62 1012.33 1012.00 1011.64 1011.26 1010.87 1010.47 1010.06 1009.64 1009.24 1008.87 1008.56 1008.34 1008.23 1008.25 1008.39 1008.65 1008.99 1009.38 1009.79 1010.17 1010.52 1010.81 1011.06 1011.27 1011.48 1011.68 1011.89 1012.12 1012.34
1012.34 1012.29 1012.25 1012.24 1012.28 1012.38 1012.53 1012.73 1012.94 1013.14 1013.30 1013.40 1013.43 1013.37 1013.25 1013.06 1012.82 1012.53 1012.22 1011.87 1011.49 1011.09 1010.68 1010.29 1009.92 1009.61 1009.39 1009.27 1009.27 1009.39 1009.60 1009.88 1010.19 1010.50 1010.77 1010.99 1011.16 1011.28 1011.38 1011.47 1011.57 1011.69 1011.84 1011.99
1012.37 1012.34 1012.33 1012.35 1012.42 1012.55 1012.73 1012.95 1013.19 1013.42 1013.62 1013.77 1013.86 1013.88 1013.83 1013.72 1013.55 1013.34 1013.08 1012.78 1012.45 1012.09 1011.72 1011.35 1011.02 1010.73 1010.53 1010.41 1010.41 1010.49 1010.65 1010.86 1011.08 1011.27 1011.42 1011.51 1011.55 1011.54 1011.50 1011.47 1011.45 1011.48 1011.53 1011.61
1012.42 1012.43 1012.46 1012.53 1012.64 1012.81 1013.02 1013.26 1013.52 1013.77 1013.99 1014.17 1014.29 1014.35 1014.35 1014.29 1014.18 1014.02 1013.82 1013.57 1013.29 1012.98 1012.65 1012.32 1012.02 1011.77 1011.58 1011.47 1011.44 1011.49 1011.59 1011.72 1011.84 1011.92 1011.95 1011.91 1011.81 1011.67 1011.51 1011.36 1011.24 1011.16 1011.13 1011.13
1012.49 1012.55 1012.63 1012.75 1012.92 1013.13 1013.37 1013.63 1013.90 1014.16 1014.39 1014.58 1014.71 1014.79 1014.82 1014.79 1014.71 1014.58 1014.42 1014.21 1013.97 1013.69 1013.40 1013.10 1012.82 1012.58 1012.40 1012.27 1012.22 1012.22 1012.25 1012.29 1012.31 1012.29 1012.20 1012.05 1011.84 1011.59 1011.32 1011.07 1010.86 1010.69 1010.58 1010.52
1012.59 1012.70 1012.84 1013.01 1013.23 1013.47 1013.75 1014.03 1014.32 1014.58 1014.80 1014.98 1015.11 1015.19 1015.22 1015.20 1015.13 1015.02 1014.87 1014.68 1014.45 1014.20 1013.92 1013.63 1013.35 1013.11 1012.90 1012.74 1012.64 1012.58 1012.53 1012.49 1012.42 1012.30 1012.12 1011.88 1011.58 1011.24 1010.90 1010.57 1010.29 1010.06 1009.89 1009.77
1012.72 1012.87 1013.06 1013.29 1013.55 1013.83 1014.13 1014.43 1014.72 1014.98 1015.20 1015.37 1015.49 1015.55 1015.57 1015.54 1015.46 1015.35 1015.19 1014.99 1014.76 1014.49 1014.20 1013.90 1013.60 1013.32 1013.07 1012.86 1012.70 1012.56 1012.44 1012.32 1012.17 1011.97 1011.72 1011.41 1011.05 1010.67 1010.27 1009.90 1009.57 1009.30 1009.09 1008.93
1012.89 1013.08 1013.30 1013.57 1013.86 1014.18 1014.50 1014.81 1015.10 1015.36 1015.57 1015.72 1015.82 1015.87 1015.86 1015.81 1015.71 1015.57 1015.38 1015.16 1014.90 1014.60 1014.28 1013.94 1013.60 1013.28 1012.98 1012.71 1012.47 1012.26 1012.07 1011.87 1011.65 1011.40 1011.10 1010.75 1010.36 1009.95 1009.53 1009.14 1008.79 1008.48 1008.24 1008.05
1013.10 1013.31 1013.56 1013.85 1014.17 1014.51 1014.84 1015.16 1015.46 1015.70 1015.90 1016.03 1016.11 1016.12 1016.09 1016.00 1015.86 1015.68 1015.46 1015.20 1014.90 1014.57 1014.20 1013.82 1013.44 1013.06 1012.71 1012.38 1012.08 1011.81 1011.56 1011.30 1011.03 1010.73 1010.40 1010.03 1009.62 1009.20 1008.78 1008.37 1008.01 1007.68 1007.41 1007.19
1013.36 1013.58 1013.84 1014.14 1014.47 1014.82 1015.16 1015.48 1015.76 1016.00 1016.17 1016.28 1016.32 1016.31 1016.23 1016.10 1015.91 1015.69 1015.43 1015.12 1014.78 1014.41 1014.01 1013.60 1013.18 1012.77 1012.38 1012.01 1011.66 1011.34 1011.04 1010.73 1010.42 1010.09 1009.74 1009.35 1008.94 1008.51 1008.08 1007.67 1007.29 1006.95 1006.65 1006.39
1013.66 1013.88 1014.14 1014.44 1014.77 1015.11 1015.44 1015.75 1016.02 1016.23 1016.38 1016.45 1016.45 1016.39 1016.26 1016.08 1015.84 1015.57 1015.26 1014.92 1014.55 1014.16 1013.74 1013.32 1012.89 1012.46 1012.05 1011.66 1011.29 1010.94 1010.60 1010.27 1009.93 1009.57 1009.19 1008.79 1008.36 1007.93 1007.49 1007.06 1006.65 1006.28 1005.94 1005.64
1014.00 1014.20 1014.45 1014.74 1015.05 1015.37 1015.69 1015.98 1016.22 1016.39 1016.50 1016.52 1016.47 1016.35 1016.17 1015.93 1015.64 1015.33 1014.98 1014.61 1014.23 1013.83 1013.42 1013.01 1012.59 1012.18 1011.78 1011.38 1011.01 1010.64 1010.28 1009.92 1009.55 1009.17 1008.76 1008.34 1007.89 1007.43 1006.96 1006.50 1006.06 1005.64 1005.25 1004.90
1014.36 1014.53 1014.75 1015.01 1015.30 1015.60 1015.88 1016.14 1016.34 1016.47 1016.52 1016.49 1016.38 1016.20 1015.95 1015.65 1015.32 1014.96 1014.59 1014.21 1013.83 1013.45 1013.06 1012.68 1012.30 1011.92 1011.54 1011.17 1010.79 1010.42 1010.04 1009.66 1009.26 1008.84 1008.40 1007.94 1007.46 1006.96 1006.45 1005.95 1005.45 1004.97 1004.53 1004.11
1014.69 1014.83 1015.02 1015.25 1015.50 1015.76 1016.01 1016.22 1016.37 1016.45 1016.45 1016.35 1016.18 1015.93 1015.63 1015.28 1014.90 1014.52 1014.13 1013.76 1013.39 1013.04 1012.69 1012.35 1012.02 1011.67 1011.33 1010.97 1010.60 1010.22 1009.82 1009.41 1008.97 1008.51 1008.03 1007.52 1006.99 1006.44 1005.89 1005.32 1004.77 1004.22 1003.70 1003.21
1014.97 1015.07 1015.21 1015.41 1015.62 1015.84 1016.05 1016.22 1016.32 1016.34 1016.28 1016.13 1015.90 1015.60 1015.24 1014.85 1014.45 1014.05 1013.67 1013.30 1012.96 1012.65 1012.34 1012.04 1011.74 1011.43 1011.10 1010.75 1010.37 1009.97 1009.54 1009.08 1008.60 1008.09 1007.56 1007.00 1006.42 1005.83 1005.22 1004.60 1003.97 1003.36 1002.76 1002.19
Thickness
5734 5729 5722 5723 5726 5724 5721 5716 5712 5715 5719 5715 5714 5716 5720 5723 5722 5722 5724 5724 5725 5725 5728 5728 5726 5725 5723 5721 5720 5718 5715 5714 5712 5710 5709 5707 5705 5704 5702 5700 5699 5698 5697 5697
5723 5718 5723 5724 5722 5718 5716 5711 5710 5712 5715 5711 5711 5713 5721 5721 5721 5723 5724 5723 5724 5724 5725 5724 5722 5721 5720 5718 5716 5715 5712 5711 5709 5707 5707 5704 5702 5701 5699 5696 5695 5694 5694 5693
5715 5718 5720 5716 5713 5711 5711 5709 5707 5705 5707 5710 5706 5709 5716 5720 5721 5721 5722 5723 5724 5722 5722 5722 5720 5718 5716 5715 5713 5712 5710 5708 5706 5705 5703 5700 5698 5697 5695 5692 5691 5690 5690 5689
5714 5716 5713 5710 5709 5709 5703 5711 5707 5702 5700 5700 5702 5697 5713 5718 5716 5717 5719 5720 5720 5720 5720 5719 5717 5715 5714 5712 5711 5710 5708 5706 5704 5702 5700 5697 5694 5692 5691 5690 5688 5687 5686 5685
5708 5709 5707 5704 5706 5707 5705 5707 5705 5702 5699 5697 5701 5697 5710 5715 5712 5716 5718 5718 5718 5718 5717 5716 5715 5713 5712 5710 5708 5707 5705 5703 5702 5700 5697 5694 5692 5691 5689 5687 5685 5684 5683 5681
5708 5710 5709 5707 5707 5706 5703 5700 5698 5698 5695 5686 5697 5694 5702 5714 5714 5716 5717 5717 5716 5716 5715 5714 5713 5711 5709 5707 5704 5702 5701 5699 5698 5696 5694 5692 5689 5687 5685 5683 5681 5681 5679 5678
5697 5702 5705 5706 5699 5699 5699 5691 5682 5679 5679 5685 5695 5691 5703 5716 5717 5715 5715 5715 5715 5714 5712 5710 5707 5706 5704 5702 5701 5699 5698 5696 5695 5693 5691 5689 5687 5685 5682 5681 5679 5678 5677 5675
5687 5688 5698 5700 5697 5693 5695 5691 5677 5669 5674 5684 5687 5689 5708 5714 5714 5714 5713 5713 5712 5711 5710 5707 5705 5703 5701 5699 5698 5697 5695 5694 5692 5691 5689 5687 5685 5682 5680 5678 5677 5676 5674 5673
5686 5685 5695 5696 5697 5696 5688 5687 5690 5681 5679 5676 5687 5696 5706 5709 5708 5708 5708 5707 5707 5707 5706 5704 5702 5701 5699 5697 5696 5695 5693 5691 5689 5688 5686 5684 5682 5679 5677 5675 5674 5672 5671 5669
5689 5679 5687 5689 5689 5686 5690 5687 5679 5673 5664 5668 5679 5687 5695 5699 5701 5703 5703 5703 5704 5704 5702 5700 5699 5697 5696 5694 5692 5692 5690 5688 5686 5684 5682 5680 5678 5676 5674 5672 5670 5669 5667 5665
5685 5677 5678 5680 5678 5679 5677 5676 5676 5674 5672 5667 5669 5684 5701 5699 5699 5698 5700 5700 5700 5699 5698 5697 5694 5693 5692 5690 5688 5687 5686 5684 5682 5680 5678 5676 5674 5671 5669 5668 5666 5664 5663 5661
5678 5677 5673 5677 5681 5680 5679 5678 5675 5666 5666 5668 5667 5680 5699 5695 5695 5695 5696 5696 5696 5695 5693 5692 5690 5688 5687 5685 5683 5682 5681 5678 5676 5674 5673 5671 5669 5667 5665 5663 5661 5660 5658 5657
5671 5668 5662 5665 5667 5668 5667 5669 5671 5672 5669 5665 5662 5675 5692 5690 5689 5689 5689 5690 5690 5688 5686 5685 5684 5683 5681 5679 5677 5676 5675 5673 5671 5669 5667 5666 5664 5662 5660 5658 5657 5655 5654 5652
5667 5666 5662 5657 5663 5664 5659 5659 5662 5663 5659 5662 5666 5674 5682 5683 5682 5683 5683 5682 5683 5682 5680 5679 5678 5677 5676 5674 5672 5671 5669 5668 5666 5663 5661 5660 5659 5657 5655 5653 5651 5650 5648 5647
5661 5659 5661 5661 5661 5658 5655 5655 5655 5656 5661 5659 5666 5667 5675 5679 5678 5679 5678 5676 5674 5674 5674 5673 5672 5671 5669 5668 5667 5665 5664 5662 5660 5658 5656 5655 5654 5652 5649 5647 5645 5644 5643 5641
5654 5652 5653 5653 5654 5652 5648 5651 5651 5652 5656 5658 5660 5664 5674 5675 5675 5672 5672 5670 5668 5668 5668 5668 5667 5665 5663 5662 5661 5660 5658 5657 5655 5653 5651 5649 5647 5645 5643 5641 5640 5638 5636 5635
5647 5645 5642 5646 5648 5644 5642 5652 5650 5651 5655 5656 5655 5663 5669 5666 5664 5665 5666 5664 5664 5663 5663 5663 5662 5661 5659 5658 5657 5655 5653 5652 5650 5648 5646 5644 5641 5640 5638 5636 5634 5631 5630 5628
5641 5639 5638 5638 5638 5629 5652 5660 5656 5652 5654 5657 5658 5660 5662 5661 5662 5662 5662 5660 5659 5658 5658 5658 5657 5656 5654 5652 5651 5649 5648 5646 5644 5642 5641 5638 5636 5634 5632 5630 5627 5625 5624 5622
5637 5633 5630 5629 5630 5639 5649 5650 5649 5646 5648 5654 5653 5654 5655 5654 5654 5656 5656 5655 5654 5653 5652 5652 5652 5651 5649 5647 5644 5643 5641 5639 5637 5636 5634 5632 5630 5628 5625 5623 5622 5620 5618 5616
5626 5628 5625 5623 5619 5626 5643 5649 5649 5643 5641 5650 5649 5648 5647 5645 5644 5651 5652 5649 5647 5647 5645 5644 5644 5643 5641 5640 5637 5636 5634 5632 5631 5629 5628 5627 5625 5622 5620 5618 5616 5613 5611 5608
5617 5617 5617 5619 5618 5631 5641 5639 5638 5628 5636 5643 5644 5643 5641 5640 5643 5646 5644 5641 5640 5639 5637 5636 5636 5635 5634 5632 5630 5628 5627 5626 5624 5622 5621 5619 5618 5616 5614 5612 5609 5607 5604 5601
5618 5615 5615 5616 5612 5622 5633 5629 5629 5634 5640 5638 5637 5637 5636 5636 5635 5635 5635 5633 5632 5631 5630 5629 5628 5627 5626 5624 5623 5622 5620 5618 5616 5614 5613 5612 5611 5609 5607 5604 5602 5600 5597 5594
5615 5619 5620 5620 5623 5630 5629 5629 5631 5631 5631 5631 5630 5630 5628 5627 5627 5626 5626 5626 5625 5623 5622 5622 5621 5620 5618 5617 5615 5614 5613 5610 5608 5606 5605 5604 5603 5601 5599 5596 5593 5591 5589 5587
5611 5610 5610 5612 5619 5621 5621 5622 5622 5622 5622 5623 5623 5621 5620 5619 5619 5618 5618 5618 5617 5617 5616 5614 5614 5612 5611 5609 5608 5607 5605 5603 5601 5600 5598 5597 5595 5592 5591 5588 5586 5583 5581 5579
5604 5600 5602 5604 5610 5612 5613 5614 5615 5615 5615 5615 5615 5614 5612 5612 5612 5612 5612 5611 5610 5609 5608 5607 5606 5605 5604 5602 5601 5599 5597 5596 5594 5593 5591 5589 5586 5584 5582 5579 5577 5576 5574 5572
5597 5595 5595 5600 5606 5605 5608 5610 5609 5607 5607 5607 5606 5605 5605 5605 5605 5605 5605 5604 5603 5601 5600 5599 5598 5597 5596 5595 5593 5591 5589 5588 5587 5585 5583 5581 5578 5575 5573 5571 5568 5564 5563 5560